Time,TemperatureF,DewpointF,PressureIn,WindDirection,WindDirectionDegrees,WindSpeedMPH,WindSpeedGustMPH,Humidity,HourlyPrecipIn,Conditions,Clouds,dailyrainin,SoftwareType,DateUTC
2013-10-19 00:00:00,50.4,41.4,29.98,West,277,0.0,0.0,71,0.00,CLR,,0.02,WeatherDisplay:10.37,2013-10-19 04:00:00,
2013-10-19 00:01:00,50.3,41.3,29.98,West,277,0.0,0.0,71,0.00,RA,,0.00,WeatherDisplay:10.37,2013-10-19 04:01:00,
2013-10-19 00:02:00,50.4,41.4,29.98,West,277,0.0,0.0,71,0.00,RA,,0.00,WeatherDisplay:10.37,2013-10-19 04:02:00,
2013-10-19 00:07:00,50.3,41.7,29.98,West,277,0.0,0.0,72,0.00,RA,,0.00,WeatherDisplay:10.37,2013-10-19 04:07:00,
2013-10-19 00:08:00,50.4,41.7,29.98,West,277,0.0,0.0,72,0.00,RA,,0.00,WeatherDisplay:10.37,2013-10-19 04:08:00,
2013-10-19 00:10:00,50.3,41.7,29.98,West,277,0.0,0.0,72,0.00,CLR,,0.00,WeatherDisplay:10.37,2013-10-19 04:10:00,
2013-10-19 00:12:00,50.3,41.7,29.98,West,277,0.0,0.0,72,0.00,CLR,,0.00,WeatherDisplay:10.37,2013-10-19 04:12:00,
2013-10-19 00:17:00,50.3,41.7,29.98,SW,227,3.1,3.1,72,0.00,CLR,,0.00,WeatherDisplay:10.37,2013-10-19 04:17:00,
2013-10-19 00:18:00,50.1,41.8,29.98,South,188,3.5,3.5,73,0.00,CLR,,0.00,WeatherDisplay:10.37,2013-10-19 04:18:00,
2013-10-19 00:23:00,49.9,42.0,29.98,West,277,2.3,2.3,74,0.00,CLR,,0.00,WeatherDisplay:10.37,2013-10-19 04:23:00,
2013-10-19 00:28:00,49.8,41.9,29.99,SW,220,2.3,0.0,74,0.00,CLR,,0.00,WeatherDisplay:10.37,2013-10-19 04:28:00,
2013-10-19 00:33:00,49.9,42.0,29.99,SW,220,0.0,0.0,74,0.00,CLR,,0.00,WeatherDisplay:10.37,2013-10-19 04:33:00,
2013-10-19 00:38:00,49.9,42.0,29.99,SW,220,0.0,0.0,74,0.00,CLR,,0.00,WeatherDisplay:10.37,2013-10-19 04:38:00,
2013-10-19 00:43:00,49.9,42.0,29.99,WNW,285,5.8,5.8,74,0.00,CLR,,0.00,WeatherDisplay:10.37,2013-10-19 04:43:00,
2013-10-19 00:48:00,50.0,41.7,29.99,WSW,239,0.0,0.0,73,0.00,CLR,,0.00,WeatherDisplay:10.37,2013-10-19 04:48:00,
2013-10-19 00:53:00,50.1,41.8,29.99,SW,220,0.0,0.0,73,0.00,CLR,,0.00,WeatherDisplay:10.37,2013-10-19 04:53:00,
2013-10-19 00:58:00,50.2,41.9,29.98,SW,220,0.0,0.0,73,0.00,CLR,,0.00,WeatherDisplay:10.37,2013-10-19 04:58:00,
2013-10-19 01:03:00,50.1,41.8,29.99,SW,220,0.0,0.0,73,0.00,CLR,,0.00,WeatherDisplay:10.37,2013-10-19 05:03:00,
2013-10-19 01:08:00,50.3,42.0,29.99,SW,220,0.0,0.0,73,0.00,CLR,,0.00,WeatherDisplay:10.37,2013-10-19 05:08:00,
2013-10-19 01:13:00,50.1,41.8,29.99,SW,220,0.0,0.0,73,0.00,CLR,,0.00,WeatherDisplay:10.37,2013-10-19 05:13:00,
2013-10-19 01:18:00,50.1,42.2,29.99,SE,136,0.0,0.0,74,0.00,CLR,,0.00,WeatherDisplay:10.37,2013-10-19 05:18:00,
2013-10-19 01:23:00,50.3,42.0,29.99,SE,136,0.0,0.0,73,0.00,CLR,,0.00,WeatherDisplay:10.37,2013-10-19 05:23:00,
2013-10-19 01:28:00,50.5,42.6,29.99,SE,136,0.0,0.0,74,0.00,CLR,,0.00,WeatherDisplay:10.37,2013-10-19 05:28:00,
2013-10-19 01:33:00,50.3,42.0,29.99,West,268,5.8,5.8,73,0.00,CLR,,0.00,WeatherDisplay:10.37,2013-10-19 05:33:00,
2013-10-19 01:38:00,50.3,42.4,29.99,West,263,0.0,0.0,74,0.00,CLR,,0.00,WeatherDisplay:10.37,2013-10-19 05:38:00,
2013-10-19 01:43:00,49.9,42.0,29.99,West,263,0.0,0.0,74,0.00,CLR,,0.00,WeatherDisplay:10.37,2013-10-19 05:43:00,
2013-10-19 01:48:00,50.0,42.4,29.99,West,263,0.0,0.0,75,0.00,CLR,,0.00,WeatherDisplay:10.37,2013-10-19 05:48:00,
2013-10-19 01:53:00,49.7,42.1,29.99,West,263,0.0,0.0,75,0.00,CLR,,0.00,WeatherDisplay:10.37,2013-10-19 05:53:00,
2013-10-19 01:58:00,49.8,42.2,29.99,West,263,0.0,0.0,75,0.00,CLR,,0.00,WeatherDisplay:10.37,2013-10-19 05:58:00,
2013-10-19 02:03:00,49.6,42.0,29.99,West,263,0.0,0.0,75,0.00,CLR,,0.00,WeatherDisplay:10.37,2013-10-19 06:03:00,
2013-10-19 02:08:00,49.4,41.8,29.99,West,263,0.0,0.0,75,0.00,CLR,,0.00,WeatherDisplay:10.37,2013-10-19 06:08:00,
2013-10-19 02:13:00,49.3,41.7,29.99,West,263,0.0,0.0,75,0.00,CLR,,0.00,WeatherDisplay:10.37,2013-10-19 06:13:00,
2013-10-19 02:18:00,49.3,42.1,29.99,WNW,302,5.8,5.8,76,0.00,CLR,,0.00,WeatherDisplay:10.37,2013-10-19 06:18:00,
2013-10-19 02:23:00,49.2,42.3,29.99,NW,305,2.8,2.8,77,0.00,CLR,,0.00,WeatherDisplay:10.37,2013-10-19 06:23:00,
2013-10-19 02:28:00,49.1,42.6,29.99,NW,309,0.0,0.0,78,0.00,CLR,,0.00,WeatherDisplay:10.37,2013-10-19 06:28:00,
2013-10-19 02:33:00,49.0,42.5,29.99,NW,309,0.0,0.0,78,0.00,CLR,,0.00,WeatherDisplay:10.37,2013-10-19 06:33:00,
2013-10-19 02:38:00,48.7,42.2,29.99,West,263,1.2,0.0,78,0.00,CLR,,0.00,WeatherDisplay:10.37,2013-10-19 06:38:00,
2013-10-19 02:43:00,48.7,42.2,29.99,WNW,299,4.1,4.1,78,0.00,CLR,,0.00,WeatherDisplay:10.37,2013-10-19 06:43:00,
2013-10-19 02:48:00,48.5,42.0,29.99,WNW,284,1.2,1.2,78,0.00,CLR,,0.00,WeatherDisplay:10.37,2013-10-19 06:48:00,
2013-10-19 02:53:00,48.7,42.2,29.99,West,267,0.0,0.0,78,0.00,CLR,,0.00,WeatherDisplay:10.37,2013-10-19 06:53:00,
2013-10-19 02:59:00,48.4,42.2,29.99,WNW,299,4.6,4.6,79,0.00,CLR,,0.00,WeatherDisplay:10.37,2013-10-19 06:59:00,
2013-10-19 03:04:00,48.5,42.3,29.99,WSW,258,5.8,5.8,79,0.00,CLR,,0.00,WeatherDisplay:10.37,2013-10-19 07:04:00,
2013-10-19 03:09:00,48.6,42.4,29.99,SW,230,2.3,2.3,79,0.00,CLR,,0.00,WeatherDisplay:10.37,2013-10-19 07:09:00,
2013-10-19 03:14:00,48.6,42.4,29.99,West,274,0.0,0.0,79,0.00,CLR,,0.00,WeatherDisplay:10.37,2013-10-19 07:14:00,
2013-10-19 03:19:00,48.6,42.7,29.99,WNW,292,3.8,3.8,80,0.00,CLR,,0.00,WeatherDisplay:10.37,2013-10-19 07:19:00,
2013-10-19 03:24:00,48.4,42.6,29.99,West,278,4.6,4.6,80,0.00,CLR,,0.00,WeatherDisplay:10.37,2013-10-19 07:24:00,
2013-10-19 03:29:00,48.4,42.6,29.99,NW,306,6.0,6.0,80,0.00,CLR,,0.00,WeatherDisplay:10.37,2013-10-19 07:29:00,
2013-10-19 03:34:00,48.5,42.6,29.99,WNW,291,5.8,5.8,80,0.00,CLR,,0.00,WeatherDisplay:10.37,2013-10-19 07:34:00,
2013-10-19 03:39:00,48.3,42.5,29.98,WNW,301,6.9,6.9,80,0.00,CLR,,0.00,WeatherDisplay:10.37,2013-10-19 07:39:00,
2013-10-19 03:44:00,48.8,42.9,29.98,WNW,288,3.5,3.5,80,0.00,CLR,,0.00,WeatherDisplay:10.37,2013-10-19 07:44:00,
2013-10-19 03:49:00,48.8,42.6,29.99,WNW,298,3.5,3.5,79,0.00,CLR,,0.00,WeatherDisplay:10.37,2013-10-19 07:49:00,
2013-10-19 03:54:00,48.7,42.5,29.99,North,357,0.0,0.0,79,0.00,CLR,,0.00,WeatherDisplay:10.37,2013-10-19 07:54:00,
2013-10-19 03:59:00,48.7,42.2,29.99,WNW,296,0.0,0.0,78,0.00,CLR,,0.00,WeatherDisplay:10.37,2013-10-19 07:59:00,
2013-10-19 04:04:00,48.9,42.4,29.99,WNW,296,0.0,0.0,78,0.00,CLR,,0.00,WeatherDisplay:10.37,2013-10-19 08:04:00,
2013-10-19 04:09:00,49.0,43.1,29.99,WNW,296,0.0,0.0,80,0.00,CLR,,0.00,WeatherDisplay:10.37,2013-10-19 08:09:00,
2013-10-19 04:14:00,48.8,43.3,29.99,NNE,31,1.9,1.9,81,0.00,CLR,,0.00,WeatherDisplay:10.37,2013-10-19 08:14:00,
2013-10-19 04:19:00,48.2,42.4,29.99,NNE,31,0.0,0.0,80,0.00,CLR,,0.00,WeatherDisplay:10.37,2013-10-19 08:19:00,
2013-10-19 04:24:00,47.9,42.4,30.00,WNW,296,1.2,1.2,81,0.00,CLR,,0.00,WeatherDisplay:10.37,2013-10-19 08:24:00,
2013-10-19 04:29:00,47.7,42.5,29.99,WNW,288,0.7,0.7,82,0.00,CLR,,0.00,WeatherDisplay:10.37,2013-10-19 08:29:00,
2013-10-19 04:34:00,47.6,42.4,30.00,WNW,288,0.0,0.0,82,0.00,CLR,,0.00,WeatherDisplay:10.37,2013-10-19 08:34:00,
2013-10-19 04:39:00,47.2,42.3,30.00,WNW,288,0.0,0.0,83,0.00,CLR,,0.00,WeatherDisplay:10.37,2013-10-19 08:39:00,
2013-10-19 04:44:00,47.0,42.1,30.00,WNW,288,0.0,0.0,83,0.00,CLR,,0.00,WeatherDisplay:10.37,2013-10-19 08:44:00,
2013-10-19 04:49:00,46.9,42.0,30.00,WNW,288,0.0,0.0,83,0.00,CLR,,0.00,WeatherDisplay:10.37,2013-10-19 08:49:00,
2013-10-19 04:54:00,46.6,41.8,30.00,South,186,0.0,0.0,83,0.00,CLR,,0.00,WeatherDisplay:10.37,2013-10-19 08:54:00,
2013-10-19 04:59:00,46.6,42.1,30.00,South,186,0.0,0.0,84,0.00,CLR,,0.00,WeatherDisplay:10.37,2013-10-19 08:59:00,
2013-10-19 05:04:00,46.4,42.2,30.00,South,186,0.0,0.0,85,0.00,CLR,,0.00,WeatherDisplay:10.37,2013-10-19 09:04:00,
2013-10-19 05:09:00,46.4,42.2,30.00,South,186,0.0,0.0,85,0.00,CLR,,0.00,WeatherDisplay:10.37,2013-10-19 09:09:00,
2013-10-19 05:14:00,46.1,41.9,30.00,South,186,0.0,0.0,85,0.00,CLR,,0.00,WeatherDisplay:10.37,2013-10-19 09:14:00,
2013-10-19 05:19:00,46.0,42.4,30.00,South,186,0.0,0.0,87,0.00,CLR,,0.00,WeatherDisplay:10.37,2013-10-19 09:19:00,
2013-10-19 05:24:00,45.8,41.9,30.00,South,186,0.0,0.0,86,0.00,CLR,,0.00,WeatherDisplay:10.37,2013-10-19 09:24:00,
2013-10-19 05:29:00,45.4,41.8,30.00,NE,47,1.2,0.0,87,0.00,CLR,,0.00,WeatherDisplay:10.37,2013-10-19 09:29:00,
2013-10-19 05:34:00,45.3,41.7,30.00,NE,47,0.0,0.0,87,0.00,CLR,,0.00,WeatherDisplay:10.37,2013-10-19 09:34:00,
2013-10-19 05:39:00,44.9,41.3,30.00,NE,47,0.0,0.0,87,0.00,CLR,,0.00,WeatherDisplay:10.37,2013-10-19 09:39:00,
2013-10-19 05:44:00,44.9,41.6,30.00,NE,47,0.0,0.0,88,0.00,CLR,,0.00,WeatherDisplay:10.37,2013-10-19 09:44:00,
2013-10-19 05:49:00,44.6,41.3,30.00,NE,47,0.0,0.0,88,0.00,CLR,,0.00,WeatherDisplay:10.37,2013-10-19 09:49:00,
2013-10-19 05:54:00,44.3,41.3,30.00,WNW,285,0.0,0.0,89,0.00,CLR,,0.00,WeatherDisplay:10.37,2013-10-19 09:54:00,
2013-10-19 05:59:00,44.2,41.2,30.00,WNW,285,0.0,0.0,89,0.00,CLR,,0.00,WeatherDisplay:10.37,2013-10-19 09:59:00,
2013-10-19 06:04:00,44.2,41.5,30.00,WNW,285,0.0,0.0,90,0.00,CLR,,0.00,WeatherDisplay:10.37,2013-10-19 10:04:00,
2013-10-19 06:09:00,44.2,41.5,30.00,WNW,285,0.0,0.0,90,0.00,CLR,,0.00,WeatherDisplay:10.37,2013-10-19 10:09:00,
2013-10-19 06:14:00,44.2,41.5,30.00,WNW,285,0.0,0.0,90,0.00,CLR,,0.00,WeatherDisplay:10.37,2013-10-19 10:14:00,
2013-10-19 06:19:00,44.3,41.6,29.99,WNW,285,0.0,0.0,90,0.00,CLR,,0.00,WeatherDisplay:10.37,2013-10-19 10:19:00,
2013-10-19 06:24:00,44.2,41.5,29.99,WNW,285,0.0,0.0,90,0.00,CLR,,0.00,WeatherDisplay:10.37,2013-10-19 10:24:00,
2013-10-19 06:29:00,44.2,41.5,29.99,WNW,285,0.0,0.0,90,0.00,CLR,,0.00,WeatherDisplay:10.37,2013-10-19 10:29:00,
2013-10-19 06:34:00,44.1,41.4,29.99,WNW,285,0.0,0.0,90,0.00,CLR,,0.00,WeatherDisplay:10.37,2013-10-19 10:34:00,
2013-10-19 06:39:00,44.3,41.6,30.00,WNW,285,0.0,0.0,90,0.00,CLR,,0.00,WeatherDisplay:10.37,2013-10-19 10:39:00,
2013-10-19 06:44:00,44.1,41.4,29.99,WNW,285,0.0,0.0,90,0.00,CLR,,0.00,WeatherDisplay:10.37,2013-10-19 10:44:00,
2013-10-19 06:49:00,44.1,41.4,29.99,WNW,285,0.0,0.0,90,0.00,CLR,,0.00,WeatherDisplay:10.37,2013-10-19 10:49:00,
2013-10-19 06:54:00,44.0,41.3,29.99,WNW,285,0.0,0.0,90,0.00,CLR,,0.00,WeatherDisplay:10.37,2013-10-19 10:54:00,
2013-10-19 06:59:00,43.6,40.9,29.99,WNW,285,0.0,0.0,90,0.00,CLR,,0.00,WeatherDisplay:10.37,2013-10-19 10:59:00,
2013-10-19 07:04:00,43.4,41.0,30.00,NW,309,3.5,3.5,91,0.00,CLR,,0.00,WeatherDisplay:10.37,2013-10-19 11:04:00,
2013-10-19 07:09:00,43.0,40.6,29.99,WNW,302,2.4,2.4,91,0.00,CLR,,0.00,WeatherDisplay:10.37,2013-10-19 11:09:00,
2013-10-19 07:14:00,42.9,40.8,29.99,NW,309,0.0,0.0,92,0.00,CLR,,0.00,WeatherDisplay:10.37,2013-10-19 11:14:00,
2013-10-19 07:19:00,42.9,40.8,29.99,NW,309,0.0,0.0,92,0.00,CLR,,0.00,WeatherDisplay:10.37,2013-10-19 11:19:00,
2013-10-19 07:24:00,42.8,40.7,30.00,NW,309,0.0,0.0,92,0.00,CLR,,0.00,WeatherDisplay:10.37,2013-10-19 11:24:00,
2013-10-19 07:29:00,43.0,41.2,30.00,NW,309,0.0,0.0,93,0.00,CLR,,0.00,WeatherDisplay:10.37,2013-10-19 11:29:00,
2013-10-19 07:34:00,42.9,41.1,30.00,NW,309,0.0,0.0,93,0.00,CLR,,0.00,WeatherDisplay:10.37,2013-10-19 11:34:00,
2013-10-19 07:39:00,43.0,41.2,30.00,NW,309,0.0,0.0,93,0.00,CLR,,0.00,WeatherDisplay:10.37,2013-10-19 11:39:00,
2013-10-19 07:44:00,42.9,41.1,30.00,NW,309,0.0,0.0,93,0.00,CLR,,0.00,WeatherDisplay:10.37,2013-10-19 11:44:00,
2013-10-19 07:49:00,42.8,41.0,30.00,NW,309,0.0,0.0,93,0.00,CLR,,0.00,WeatherDisplay:10.37,2013-10-19 11:49:00,
2013-10-19 07:54:00,42.8,41.0,30.00,NW,309,0.0,0.0,93,0.00,CLR,,0.00,WeatherDisplay:10.37,2013-10-19 11:54:00,
2013-10-19 07:59:00,42.9,41.1,30.00,NW,309,0.0,0.0,93,0.00,CLR,,0.00,WeatherDisplay:10.37,2013-10-19 11:59:00,
2013-10-19 08:04:00,42.8,41.0,30.00,NW,309,0.0,0.0,93,0.00,CLR,,0.00,WeatherDisplay:10.37,2013-10-19 12:04:00,
2013-10-19 08:09:00,43.0,41.4,30.00,NW,309,0.0,0.0,94,0.00,CLR,,0.00,WeatherDisplay:10.37,2013-10-19 12:09:00,
2013-10-19 08:14:00,43.2,41.6,30.01,NW,309,0.0,0.0,94,0.00,CLR,,0.00,WeatherDisplay:10.37,2013-10-19 12:14:00,
2013-10-19 08:19:00,43.3,41.7,30.01,NW,309,0.0,0.0,94,0.00,CLR,,0.00,WeatherDisplay:10.37,2013-10-19 12:19:00,
2013-10-19 08:24:00,43.4,41.8,30.01,NW,309,0.0,0.0,94,0.00,CLR,,0.00,WeatherDisplay:10.37,2013-10-19 12:24:00,
2013-10-19 08:29:00,43.8,42.2,30.01,NW,309,0.0,0.0,94,0.00,CLR,,0.00,WeatherDisplay:10.37,2013-10-19 12:29:00,
2013-10-19 08:34:00,44.2,42.6,30.01,NW,309,0.0,0.0,94,0.00,CLR,,0.00,WeatherDisplay:10.37,2013-10-19 12:34:00,
2013-10-19 08:39:00,44.6,43.0,30.01,NW,309,0.0,0.0,94,0.00,CLR,,0.00,WeatherDisplay:10.37,2013-10-19 12:39:00,
2013-10-19 08:44:00,45.4,43.8,30.01,NW,309,0.0,0.0,94,0.00,CLR,,0.00,WeatherDisplay:10.37,2013-10-19 12:44:00,
2013-10-19 08:49:00,45.5,43.6,30.01,NW,309,0.0,0.0,93,0.00,CLR,,0.00,WeatherDisplay:10.37,2013-10-19 12:49:00,
2013-10-19 08:54:00,46.0,43.8,30.00,NW,309,0.0,0.0,92,0.00,CLR,,0.00,WeatherDisplay:10.37,2013-10-19 12:54:00,
2013-10-19 09:04:00,46.5,44.1,30.00,North,0,0.0,0.0,91,0.00,CLR,,0.00,WeatherDisplay:10.37,2013-10-19 13:04:00,
2013-10-19 09:09:00,46.7,44.0,30.00,North,0,0.0,0.0,90,0.00,CLR,,0.00,WeatherDisplay:10.37,2013-10-19 13:09:00,
2013-10-19 09:14:00,47.3,44.6,30.00,North,0,0.0,0.0,90,0.00,CLR,,0.00,WeatherDisplay:10.37,2013-10-19 13:14:00,
2013-10-19 09:19:00,48.0,44.7,30.00,North,0,0.0,0.0,88,0.00,CLR,,0.00,WeatherDisplay:10.37,2013-10-19 13:19:00,
2013-10-19 09:24:00,48.6,44.9,30.00,North,0,0.0,0.0,87,0.00,CLR,,0.00,WeatherDisplay:10.37,2013-10-19 13:24:00,
2013-10-19 09:29:00,49.0,45.0,30.00,North,0,0.0,0.0,86,0.00,CLR,,0.00,WeatherDisplay:10.37,2013-10-19 13:29:00,
2013-10-19 09:34:00,49.3,45.3,30.00,North,0,0.0,0.0,86,0.00,CLR,,0.00,WeatherDisplay:10.37,2013-10-19 13:34:00,
2013-10-19 09:39:00,49.6,45.3,30.00,North,0,0.0,0.0,85,0.00,CLR,,0.00,WeatherDisplay:10.37,2013-10-19 13:39:00,
2013-10-19 09:44:00,50.0,45.7,30.00,North,0,0.0,0.0,85,0.00,CLR,,0.00,WeatherDisplay:10.37,2013-10-19 13:44:00,
2013-10-19 09:49:00,50.5,45.9,30.00,North,0,0.0,0.0,84,0.00,CLR,,0.00,WeatherDisplay:10.37,2013-10-19 13:49:00,
2013-10-19 09:54:00,51.0,46.1,29.99,North,0,0.0,0.0,83,0.00,CLR,,0.00,WeatherDisplay:10.37,2013-10-19 13:54:00,
2013-10-19 09:59:00,51.6,46.3,29.99,North,0,0.0,0.0,82,0.00,CLR,,0.00,WeatherDisplay:10.37,2013-10-19 13:59:00,
2013-10-19 10:09:00,52.3,46.4,29.98,North,0,0.0,0.0,80,0.00,CLR,,0.00,WeatherDisplay:10.37,2013-10-19 14:09:00,
2013-10-19 10:14:00,52.5,46.5,29.98,North,0,0.0,0.0,80,0.00,CLR,,0.00,WeatherDisplay:10.37,2013-10-19 14:14:00,
2013-10-19 10:19:00,52.9,46.6,29.98,North,0,0.0,0.0,79,0.00,CLR,,0.00,WeatherDisplay:10.37,2013-10-19 14:19:00,
2013-10-19 10:24:00,53.3,47.0,29.98,East,90,1.2,1.2,79,0.00,CLR,,0.00,WeatherDisplay:10.37,2013-10-19 14:24:00,
2013-10-19 10:29:00,53.8,47.1,29.97,ENE,71,0.0,0.0,78,0.00,CLR,,0.00,WeatherDisplay:10.37,2013-10-19 14:29:00,
2013-10-19 10:34:00,54.3,47.3,29.98,SE,127,0.0,0.0,77,0.00,CLR,,0.00,WeatherDisplay:10.37,2013-10-19 14:34:00,
2013-10-19 10:39:00,54.8,47.4,29.98,ESE,120,2.4,2.4,76,0.00,CLR,,0.00,WeatherDisplay:10.37,2013-10-19 14:39:00,
2013-10-19 10:44:00,55.5,47.4,29.98,ESE,114,1.8,1.8,74,0.00,CLR,,0.00,WeatherDisplay:10.37,2013-10-19 14:44:00,
2013-10-19 10:49:00,56.1,47.6,29.97,East,96,0.0,0.0,73,0.00,CLR,,0.00,WeatherDisplay:10.37,2013-10-19 14:49:00,
2013-10-19 10:54:00,56.7,47.4,29.97,East,96,0.0,0.0,71,0.00,CLR,,0.00,WeatherDisplay:10.37,2013-10-19 14:54:00,
2013-10-19 10:59:00,57.2,47.5,29.97,East,96,0.0,0.0,70,0.00,CLR,,0.00,WeatherDisplay:10.37,2013-10-19 14:59:00,
2013-10-19 11:04:00,57.8,48.1,29.97,East,96,0.0,0.0,70,0.00,CLR,,0.00,WeatherDisplay:10.37,2013-10-19 15:04:00,
2013-10-19 11:09:00,58.0,47.9,29.97,East,96,0.0,0.0,69,0.00,CLR,,0.00,WeatherDisplay:10.37,2013-10-19 15:09:00,
2013-10-19 11:14:00,58.5,47.6,29.97,East,96,0.0,0.0,67,0.00,CLR,,0.00,WeatherDisplay:10.37,2013-10-19 15:14:00,
2013-10-19 11:19:00,59.2,48.7,29.97,East,96,0.0,0.0,68,0.00,CLR,,0.00,WeatherDisplay:10.37,2013-10-19 15:19:00,
2013-10-19 11:24:00,59.3,48.4,29.97,ESE,109,3.5,3.5,67,0.00,CLR,,0.00,WeatherDisplay:10.37,2013-10-19 15:24:00,
2013-10-19 11:29:00,59.8,47.6,29.96,ESE,113,2.7,2.7,64,0.00,CLR,,0.00,WeatherDisplay:10.37,2013-10-19 15:29:00,
2013-10-19 11:34:00,60.2,48.0,29.96,ENE,61,3.5,3.5,64,0.00,CLR,,0.00,WeatherDisplay:10.37,2013-10-19 15:34:00,
2013-10-19 11:39:00,60.8,49.0,29.96,South,184,3.2,3.2,65,0.00,CLR,,0.00,WeatherDisplay:10.37,2013-10-19 15:39:00,
2013-10-19 11:44:00,61.1,46.7,29.95,SSE,160,0.0,0.0,59,0.00,CLR,,0.00,WeatherDisplay:10.37,2013-10-19 15:44:00,
2013-10-19 11:49:00,61.7,47.3,29.96,SSE,168,5.8,5.8,59,0.00,CLR,,0.00,WeatherDisplay:10.37,2013-10-19 15:49:00,
2013-10-19 11:54:00,62.1,46.7,29.95,ESE,106,0.0,0.0,57,0.00,CLR,,0.00,WeatherDisplay:10.37,2013-10-19 15:54:00,
2013-10-19 11:59:00,62.4,45.1,29.95,SSE,154,6.9,6.9,53,0.00,CLR,,0.00,WeatherDisplay:10.37,2013-10-19 15:59:00,
2013-10-19 12:04:00,62.5,43.1,29.95,South,185,8.3,8.3,49,0.00,CLR,,0.00,WeatherDisplay:10.37,2013-10-19 16:04:00,
2013-10-19 12:09:00,62.6,44.2,29.95,SSE,168,6.9,6.9,51,0.00,CLR,,0.00,WeatherDisplay:10.37,2013-10-19 16:09:00,
2013-10-19 12:14:00,62.6,43.7,29.94,SW,236,6.9,6.9,50,0.00,CLR,,0.00,WeatherDisplay:10.37,2013-10-19 16:14:00,
2013-10-19 12:19:00,62.6,43.2,29.93,SSW,200,2.3,2.3,49,0.00,CLR,,0.00,WeatherDisplay:10.37,2013-10-19 16:19:00,
2013-10-19 12:24:00,62.6,43.2,29.93,East,92,1.6,1.6,49,0.00,CLR,,0.00,WeatherDisplay:10.37,2013-10-19 16:24:00,
2013-10-19 12:29:00,62.7,43.3,29.93,South,181,6.9,6.9,49,0.00,CLR,,0.00,WeatherDisplay:10.37,2013-10-19 16:29:00,
2013-10-19 12:34:00,62.7,42.8,29.93,ESE,113,6.9,6.9,48,0.00,CLR,,0.00,WeatherDisplay:10.37,2013-10-19 16:34:00,
2013-10-19 12:39:00,62.7,42.8,29.93,SSW,195,8.4,8.4,48,0.00,CLR,,0.00,WeatherDisplay:10.37,2013-10-19 16:39:00,
2013-10-19 12:44:00,62.5,42.0,29.92,SE,138,13.8,13.8,47,0.00,CLR,,0.00,WeatherDisplay:10.37,2013-10-19 16:44:00,
2013-10-19 12:49:00,62.7,42.2,29.92,SSW,206,5.1,5.1,47,0.00,CLR,,0.00,WeatherDisplay:10.37,2013-10-19 16:49:00,
2013-10-19 12:54:00,62.9,42.4,29.92,South,185,9.2,9.2,47,0.00,CLR,,0.00,WeatherDisplay:10.37,2013-10-19 16:54:00,
2013-10-19 12:59:00,62.8,41.7,29.92,ESE,120,7.9,7.9,46,0.00,CLR,,0.00,WeatherDisplay:10.37,2013-10-19 16:59:00,
2013-10-19 13:04:00,62.9,41.8,29.91,ENE,75,3.5,3.5,46,0.00,CLR,,0.00,WeatherDisplay:10.37,2013-10-19 17:04:00,
2013-10-19 13:09:00,63.0,42.5,29.91,SW,230,7.8,7.8,47,0.00,CLR,,0.00,WeatherDisplay:10.37,2013-10-19 17:09:00,
2013-10-19 13:14:00,63.3,42.2,29.91,ENE,71,6.9,6.9,46,0.00,CLR,,0.00,WeatherDisplay:10.37,2013-10-19 17:14:00,
2013-10-19 13:19:00,63.5,41.2,29.91,SE,130,13.9,13.9,44,0.00,CLR,,0.00,WeatherDisplay:10.37,2013-10-19 17:19:00,
2013-10-19 13:24:00,63.3,42.2,29.91,SW,234,9.6,9.6,46,0.00,CLR,,0.00,WeatherDisplay:10.37,2013-10-19 17:24:00,
2013-10-19 13:29:00,63.2,42.1,29.90,South,179,10.4,10.4,46,0.00,CLR,,0.00,WeatherDisplay:10.37,2013-10-19 17:29:00,
2013-10-19 13:34:00,63.1,41.4,29.90,East,90,10.8,10.8,45,0.00,CLR,,0.00,WeatherDisplay:10.37,2013-10-19 17:34:00,
2013-10-19 13:39:00,63.3,42.8,29.90,SSE,151,4.7,4.7,47,0.00,CLR,,0.00,WeatherDisplay:10.37,2013-10-19 17:39:00,
2013-10-19 13:44:00,63.4,42.3,29.89,SSW,196,9.4,9.4,46,0.00,CLR,,0.00,WeatherDisplay:10.37,2013-10-19 17:44:00,
2013-10-19 13:49:00,63.3,41.0,29.90,SE,136,8.6,8.6,44,0.00,CLR,,0.00,WeatherDisplay:10.37,2013-10-19 17:49:00,
2013-10-19 13:54:00,63.2,41.5,29.90,East,88,11.2,11.2,45,0.00,CLR,,0.00,WeatherDisplay:10.37,2013-10-19 17:54:00,
2013-10-19 13:59:00,63.3,41.6,29.90,West,263,8.1,8.1,45,0.00,CLR,,0.00,WeatherDisplay:10.37,2013-10-19 17:59:00,
2013-10-19 14:04:00,63.4,41.1,29.89,ENE,62,6.9,6.9,44,0.00,CLR,,0.00,WeatherDisplay:10.37,2013-10-19 18:04:00,
2013-10-19 14:09:00,63.0,43.0,29.89,WSW,240,8.0,8.0,48,0.00,CLR,,0.00,WeatherDisplay:10.37,2013-10-19 18:09:00,
2013-10-19 14:14:00,63.1,42.6,29.90,SSW,195,8.8,8.8,47,0.00,CLR,,0.00,WeatherDisplay:10.37,2013-10-19 18:14:00,
2013-10-19 14:19:00,62.7,41.1,29.89,West,281,10.4,10.4,45,0.00,CLR,,0.00,WeatherDisplay:10.37,2013-10-19 18:19:00,
2013-10-19 14:24:00,62.8,41.7,29.89,SW,219,0.0,0.0,46,0.00,CLR,,0.00,WeatherDisplay:10.37,2013-10-19 18:24:00,
2013-10-19 14:29:00,62.5,42.0,29.89,WSW,254,10.7,10.7,47,0.00,CLR,,0.00,WeatherDisplay:10.37,2013-10-19 18:29:00,
2013-10-19 14:34:00,62.2,40.6,29.89,SSE,165,9.6,9.6,45,0.00,CLR,,0.00,WeatherDisplay:10.37,2013-10-19 18:34:00,
2013-10-19 14:39:00,62.2,40.6,29.88,SSE,158,8.1,8.1,45,0.00,CLR,,0.00,WeatherDisplay:10.37,2013-10-19 18:39:00,
2013-10-19 14:44:00,61.9,40.9,29.87,SSW,198,9.2,9.2,46,0.00,CLR,,0.00,WeatherDisplay:10.37,2013-10-19 18:44:00,
2013-10-19 14:49:00,62.0,42.1,29.88,SSW,203,6.3,6.3,48,0.00,CLR,,0.00,WeatherDisplay:10.37,2013-10-19 18:49:00,
2013-10-19 14:54:00,61.9,42.6,29.88,South,176,8.1,8.1,49,0.00,CLR,,0.00,WeatherDisplay:10.37,2013-10-19 18:54:00,
2013-10-19 14:59:00,61.8,43.0,29.89,South,172,8.2,8.2,50,0.00,CLR,,0.00,WeatherDisplay:10.37,2013-10-19 18:59:00,
2013-10-19 15:04:00,61.8,43.0,29.88,SSW,206,6.9,6.9,50,0.00,SCT,,0.00,WeatherDisplay:10.37,2013-10-19 19:04:00,
2013-10-19 15:09:00,62.0,44.2,29.88,SSW,202,6.9,6.9,52,0.00,SCT,,0.00,WeatherDisplay:10.37,2013-10-19 19:09:00,
2013-10-19 15:14:00,61.6,44.3,29.87,South,186,10.8,10.8,53,0.00,SCT,,0.00,WeatherDisplay:10.37,2013-10-19 19:14:00,
2013-10-19 15:19:00,61.5,44.2,29.87,South,176,16.3,16.3,53,0.00,SCT,,0.00,WeatherDisplay:10.37,2013-10-19 19:19:00,
2013-10-19 15:24:00,61.3,44.5,29.87,WSW,247,2.3,0.0,54,0.00,SCT,,0.00,WeatherDisplay:10.37,2013-10-19 19:24:00,
2013-10-19 15:29:00,61.3,45.5,29.88,SSW,192,2.3,2.3,56,0.00,SCT,,0.00,WeatherDisplay:10.37,2013-10-19 19:29:00,
2013-10-19 15:34:00,61.0,45.7,29.88,ESE,116,9.8,9.8,57,0.00,SCT,,0.00,WeatherDisplay:10.37,2013-10-19 19:34:00,
2013-10-19 15:39:00,60.7,45.9,29.87,SW,219,5.8,5.8,58,0.00,SCT,,0.00,WeatherDisplay:10.37,2013-10-19 19:39:00,
2013-10-19 15:44:00,60.6,45.8,29.86,SE,126,0.0,0.0,58,0.00,SCT,,0.00,WeatherDisplay:10.37,2013-10-19 19:44:00,
2013-10-19 15:49:00,60.6,46.2,29.87,SSE,148,6.9,6.9,59,0.00,SCT,,0.00,WeatherDisplay:10.37,2013-10-19 19:49:00,
2013-10-19 15:54:00,60.3,45.9,29.87,WSW,243,0.0,0.0,59,0.00,SCT,,0.00,WeatherDisplay:10.37,2013-10-19 19:54:00,
2013-10-19 15:59:00,60.2,46.3,29.87,SW,216,0.0,0.0,60,0.00,SCT,,0.00,WeatherDisplay:10.37,2013-10-19 19:59:00,
2013-10-19 16:04:00,60.3,45.9,29.86,SSW,203,4.4,4.4,59,0.00,SCT,,0.00,WeatherDisplay:10.37,2013-10-19 20:04:00,
2013-10-19 16:09:00,60.4,46.5,29.87,West,281,2.3,2.3,60,0.00,SCT,,0.00,WeatherDisplay:10.37,2013-10-19 20:09:00,
2013-10-19 16:14:00,60.1,46.6,29.86,SE,140,4.9,4.9,61,0.00,SCT,,0.00,WeatherDisplay:10.37,2013-10-19 20:14:00,
2013-10-19 16:19:00,60.1,46.6,29.86,SE,137,3.5,3.5,61,0.00,SCT,,0.00,WeatherDisplay:10.37,2013-10-19 20:19:00,
2013-10-19 16:24:00,60.1,46.2,29.85,SE,134,4.8,4.8,60,0.00,SCT,,0.00,WeatherDisplay:10.37,2013-10-19 20:24:00,
2013-10-19 16:29:00,60.2,46.3,29.84,SE,131,4.6,4.6,60,0.00,SCT,,0.00,WeatherDisplay:10.37,2013-10-19 20:29:00,
2013-10-19 16:34:00,60.0,46.5,29.85,SSE,152,0.0,0.0,61,0.00,SCT,,0.00,WeatherDisplay:10.37,2013-10-19 20:34:00,
2013-10-19 16:39:00,60.0,47.0,29.84,SSE,152,0.0,0.0,62,0.00,SCT,,0.00,WeatherDisplay:10.37,2013-10-19 20:39:00,
2013-10-19 16:44:00,59.9,46.9,29.83,SSE,157,0.0,0.0,62,0.00,SCT,,0.00,WeatherDisplay:10.37,2013-10-19 20:44:00,
2013-10-19 16:49:00,59.8,46.4,29.83,SSW,203,2.6,0.0,61,0.00,SCT,,0.00,WeatherDisplay:10.37,2013-10-19 20:49:00,
2013-10-19 16:54:00,59.7,46.7,29.83,South,186,0.0,0.0,62,0.00,SCT,,0.00,WeatherDisplay:10.37,2013-10-19 20:54:00,
2013-10-19 16:59:00,59.8,46.8,29.83,ESE,113,1.2,1.2,62,0.00,SCT,,0.00,WeatherDisplay:10.37,2013-10-19 20:59:00,
2013-10-19 17:04:00,59.7,46.7,29.83,South,178,4.6,4.6,62,0.00,SCT,,0.00,WeatherDisplay:10.37,2013-10-19 21:04:00,
2013-10-19 17:09:00,59.6,46.6,29.83,WSW,237,0.0,0.0,62,0.00,SCT,,0.00,WeatherDisplay:10.37,2013-10-19 21:09:00,
2013-10-19 17:14:00,59.6,47.0,29.82,WSW,237,0.0,0.0,63,0.00,SCT,,0.00,WeatherDisplay:10.37,2013-10-19 21:14:00,
2013-10-19 17:19:00,59.4,46.8,29.81,WSW,237,0.0,0.0,63,0.00,SCT,,0.00,WeatherDisplay:10.37,2013-10-19 21:19:00,
2013-10-19 17:24:00,59.5,46.9,29.82,SE,130,4.6,4.6,63,0.00,SCT,,0.00,WeatherDisplay:10.37,2013-10-19 21:24:00,
2013-10-19 17:29:00,59.3,46.7,29.81,SE,130,0.0,0.0,63,0.00,SCT,,0.00,WeatherDisplay:10.37,2013-10-19 21:29:00,
2013-10-19 17:34:00,59.0,46.9,29.81,SE,130,0.0,0.0,64,0.00,SCT,,0.00,WeatherDisplay:10.37,2013-10-19 21:34:00,
2013-10-19 17:39:00,58.9,47.2,29.81,SE,130,0.0,0.0,65,0.00,SCT,,0.00,WeatherDisplay:10.37,2013-10-19 21:39:00,
2013-10-19 17:44:00,58.9,47.2,29.82,SE,130,0.0,0.0,65,0.00,SCT,,0.00,WeatherDisplay:10.37,2013-10-19 21:44:00,
2013-10-19 17:49:00,58.5,47.2,29.83,SE,130,0.0,0.0,66,0.00,SCT,,0.00,WeatherDisplay:10.37,2013-10-19 21:49:00,
2013-10-19 17:54:00,58.4,46.7,29.83,South,178,2.3,2.3,65,0.00,SCT,,0.00,WeatherDisplay:10.37,2013-10-19 21:54:00,
2013-10-19 17:59:00,58.5,46.4,29.82,South,191,0.0,0.0,64,0.00,SCT,,0.00,WeatherDisplay:10.37,2013-10-19 21:59:00,
2013-10-19 18:04:00,58.5,46.4,29.82,South,191,0.0,0.0,64,0.00,SCT,,0.00,WeatherDisplay:10.37,2013-10-19 22:04:00,
2013-10-19 18:09:00,58.4,46.3,29.82,South,191,0.0,0.0,64,0.00,SCT,,0.00,WeatherDisplay:10.37,2013-10-19 22:09:00,
2013-10-19 18:14:00,58.5,46.8,29.82,South,191,0.0,0.0,65,0.00,SCT,,0.00,WeatherDisplay:10.37,2013-10-19 22:14:00,
2013-10-19 18:19:00,58.3,46.6,29.82,SE,138,2.3,0.0,65,0.00,SCT,,0.00,WeatherDisplay:10.37,2013-10-19 22:19:00,
2013-10-19 18:24:00,58.3,47.0,29.83,WSW,237,5.8,0.0,66,0.00,SCT,,0.00,WeatherDisplay:10.37,2013-10-19 22:24:00,
2013-10-19 18:29:00,58.2,47.3,29.83,WNW,285,6.9,6.9,67,0.00,SCT,,0.00,WeatherDisplay:10.37,2013-10-19 22:29:00,
2013-10-19 18:35:00,58.2,46.9,29.83,SE,124,4.7,4.7,66,0.00,SCT,,0.00,WeatherDisplay:10.37,2013-10-19 22:35:00,
2013-10-19 18:40:00,58.0,46.7,29.83,NNW,336,5.8,5.8,66,0.00,SCT,,0.00,WeatherDisplay:10.37,2013-10-19 22:40:00,
2013-10-19 18:45:00,58.2,46.9,29.83,SW,217,1.4,1.4,66,0.00,SCT,,0.00,WeatherDisplay:10.37,2013-10-19 22:45:00,
2013-10-19 18:50:00,58.3,47.0,29.83,South,182,0.0,0.0,66,0.00,SCT,,0.00,WeatherDisplay:10.37,2013-10-19 22:50:00,
2013-10-19 18:55:00,58.1,46.8,29.83,South,182,0.0,0.0,66,0.00,SCT,,0.00,WeatherDisplay:10.37,2013-10-19 22:55:00,
2013-10-19 19:00:00,58.3,47.0,29.83,South,182,0.0,0.0,66,0.00,SCT,,0.00,WeatherDisplay:10.37,2013-10-19 23:00:00,
2013-10-19 19:05:00,58.0,46.7,29.82,WSW,243,1.5,1.5,66,0.00,SCT,,0.00,WeatherDisplay:10.37,2013-10-19 23:05:00,
2013-10-19 19:10:00,58.4,47.1,29.82,SSE,155,4.6,4.6,66,0.00,SCT,,0.00,WeatherDisplay:10.37,2013-10-19 23:10:00,
2013-10-19 19:15:00,58.2,47.3,29.82,SSE,155,0.0,0.0,67,0.00,SCT,,0.00,WeatherDisplay:10.37,2013-10-19 23:15:00,
2013-10-19 19:20:00,58.2,47.3,29.81,SSE,155,0.0,0.0,67,0.00,SCT,,0.00,WeatherDisplay:10.37,2013-10-19 23:20:00,
2013-10-19 19:25:00,58.0,47.5,29.81,East,85,2.3,2.3,68,0.00,SCT,,0.00,WeatherDisplay:10.37,2013-10-19 23:25:00,
2013-10-19 19:30:00,57.7,47.6,29.80,SE,141,0.0,0.0,69,0.00,SCT,,0.00,WeatherDisplay:10.37,2013-10-19 23:30:00,
2013-10-19 19:35:00,57.5,47.8,29.81,South,175,3.5,3.5,70,0.00,SCT,,0.00,WeatherDisplay:10.37,2013-10-19 23:35:00,
2013-10-19 19:40:00,57.3,48.0,29.80,WSW,248,0.0,0.0,71,0.00,SCT,,0.00,WeatherDisplay:10.37,2013-10-19 23:40:00,
2013-10-19 19:45:00,57.3,48.0,29.80,ESE,102,0.0,0.0,71,0.00,SCT,,0.00,WeatherDisplay:10.37,2013-10-19 23:45:00,
2013-10-19 19:50:00,56.9,48.0,29.80,ESE,102,0.0,0.0,72,0.00,SCT,,0.00,WeatherDisplay:10.37,2013-10-19 23:50:00,
2013-10-19 19:55:00,56.7,47.8,29.80,ESE,102,1.2,0.0,72,0.00,SCT,,0.00,WeatherDisplay:10.37,2013-10-19 23:55:00,
2013-10-19 20:00:00,56.6,48.4,29.81,SW,215,2.8,2.8,74,0.00,SCT,,0.00,WeatherDisplay:10.37,2013-10-20 00:00:00,
2013-10-19 20:05:00,56.5,48.3,29.80,SSW,200,0.0,0.0,74,0.00,SCT,,0.00,WeatherDisplay:10.37,2013-10-20 00:05:00,
2013-10-19 20:10:00,56.5,48.3,29.80,SSW,200,0.0,0.0,74,0.00,SCT,,0.00,WeatherDisplay:10.37,2013-10-20 00:10:00,
2013-10-19 20:15:00,56.5,48.3,29.80,SSW,200,0.0,0.0,74,0.00,SCT,,0.00,WeatherDisplay:10.37,2013-10-20 00:15:00,
2013-10-19 20:20:00,56.6,48.4,29.80,SSW,200,0.0,0.0,74,0.00,SCT,,0.00,WeatherDisplay:10.37,2013-10-20 00:20:00,
2013-10-19 20:25:00,56.6,48.8,29.79,SSW,200,0.0,0.0,75,0.00,SCT,,0.00,WeatherDisplay:10.37,2013-10-20 00:25:00,
2013-10-19 20:30:00,56.5,49.1,29.79,South,189,0.0,0.0,76,0.00,SCT,,0.00,WeatherDisplay:10.37,2013-10-20 00:30:00,
2013-10-19 20:35:00,56.4,49.0,29.79,South,189,0.0,0.0,76,0.00,SCT,,0.00,WeatherDisplay:10.37,2013-10-20 00:35:00,
2013-10-19 20:40:00,56.4,49.3,29.79,South,178,3.9,3.9,77,0.00,SCT,,0.00,WeatherDisplay:10.37,2013-10-20 00:40:00,
2013-10-19 20:45:00,56.3,49.2,29.79,SSE,158,3.5,3.5,77,0.00,SCT,,0.00,WeatherDisplay:10.37,2013-10-20 00:45:00,
2013-10-19 20:50:00,56.3,49.2,29.79,SSE,158,0.0,0.0,77,0.00,SCT,,0.00,WeatherDisplay:10.37,2013-10-20 00:50:00,
2013-10-19 20:55:00,56.1,49.0,29.79,SW,223,1.2,1.2,77,0.00,SCT,,0.00,WeatherDisplay:10.37,2013-10-20 00:55:00,
2013-10-19 21:00:00,56.3,49.2,29.80,SW,227,3.9,3.9,77,0.00,SCT,,0.00,WeatherDisplay:10.37,2013-10-20 01:00:00,
2013-10-19 21:05:00,56.3,49.6,29.80,WNW,289,0.0,0.0,78,0.00,SCT,,0.00,WeatherDisplay:10.37,2013-10-20 01:05:00,
2013-10-19 21:10:00,56.2,49.5,29.80,WSW,256,3.4,3.4,78,0.00,SCT,,0.00,WeatherDisplay:10.37,2013-10-20 01:10:00,
2013-10-19 21:15:00,56.3,49.6,29.80,SSE,152,5.8,5.8,78,0.00,SCT,,0.00,WeatherDisplay:10.37,2013-10-20 01:15:00,
2013-10-19 21:20:00,56.4,49.7,29.80,ENE,71,1.2,1.2,78,0.00,SCT,,0.00,WeatherDisplay:10.37,2013-10-20 01:20:00,
2013-10-19 21:25:00,56.4,49.7,29.79,ENE,71,0.0,0.0,78,0.00,SCT,,0.00,WeatherDisplay:10.37,2013-10-20 01:25:00,
2013-10-19 21:30:00,56.4,49.7,29.79,ESE,112,2.3,2.3,78,0.00,SCT,,0.00,WeatherDisplay:10.37,2013-10-20 01:30:00,
2013-10-19 21:35:00,56.4,49.7,29.79,SW,229,0.0,0.0,78,0.00,SCT,,0.00,WeatherDisplay:10.37,2013-10-20 01:35:00,
2013-10-19 21:41:00,56.4,49.7,29.79,SW,227,4.2,4.2,78,0.00,SCT,,0.00,WeatherDisplay:10.37,2013-10-20 01:41:00,
2013-10-19 21:46:00,56.4,49.7,29.79,ENE,61,0.0,0.0,78,0.00,SCT,,0.00,WeatherDisplay:10.37,2013-10-20 01:46:00,
2013-10-19 21:51:00,56.4,50.0,29.79,WSW,257,2.3,2.3,79,0.00,SCT,,0.00,WeatherDisplay:10.37,2013-10-20 01:51:00,
2013-10-19 21:56:00,56.4,50.0,29.79,South,191,5.8,5.8,79,0.00,SCT,,0.00,WeatherDisplay:10.37,2013-10-20 01:56:00,
2013-10-19 22:01:00,56.4,50.0,29.78,SSE,154,3.5,3.5,79,0.00,SCT,,0.00,WeatherDisplay:10.37,2013-10-20 02:01:00,
2013-10-19 22:06:00,56.6,50.2,29.78,ESE,113,2.1,2.1,79,0.00,SCT,,0.00,WeatherDisplay:10.37,2013-10-20 02:06:00,
2013-10-19 22:11:00,56.5,50.4,29.78,SW,219,5.8,5.8,80,0.00,SCT,,0.00,WeatherDisplay:10.37,2013-10-20 02:11:00,
2013-10-19 22:16:00,56.5,50.4,29.78,SW,217,3.4,3.4,80,0.00,SCT,,0.00,WeatherDisplay:10.37,2013-10-20 02:16:00,
2013-10-19 22:21:00,56.4,50.7,29.78,South,184,0.0,0.0,81,0.00,SCT,,0.00,WeatherDisplay:10.37,2013-10-20 02:21:00,
2013-10-19 22:26:00,56.5,50.8,29.78,SW,222,5.8,5.8,81,0.00,SCT,,0.00,WeatherDisplay:10.37,2013-10-20 02:26:00,
2013-10-19 22:31:00,56.5,51.1,29.78,South,174,4.6,4.6,82,0.00,SCT,,0.00,WeatherDisplay:10.37,2013-10-20 02:31:00,
2013-10-19 22:36:00,56.5,51.1,29.77,SSW,206,0.0,0.0,82,0.00,SCT,,0.00,WeatherDisplay:10.37,2013-10-20 02:36:00,
2013-10-19 22:41:00,56.5,51.1,29.77,South,174,0.0,0.0,82,0.00,SCT,,0.00,WeatherDisplay:10.37,2013-10-20 02:41:00,
2013-10-19 22:46:00,56.4,51.0,29.77,SSE,161,2.3,0.0,82,0.00,SCT,,0.00,WeatherDisplay:10.37,2013-10-20 02:46:00,
2013-10-19 22:51:00,56.4,51.3,29.78,WSW,248,0.0,0.0,83,0.00,SCT,,0.00,WeatherDisplay:10.37,2013-10-20 02:51:00,
2013-10-19 22:56:00,56.4,51.7,29.78,WSW,254,7.5,7.5,84,0.00,SCT,,0.00,WeatherDisplay:10.37,2013-10-20 02:56:00,
2013-10-19 23:01:00,56.4,52.3,29.78,West,268,26.2,26.2,86,0.02,RA,,0.02,WeatherDisplay:10.37,2013-10-20 03:01:00,
2013-10-19 23:06:00,56.2,52.4,29.78,WSW,250,0.0,0.0,87,0.03,RA,,0.03,WeatherDisplay:10.37,2013-10-20 03:06:00,
2013-10-19 23:11:00,56.1,52.6,29.79,NW,308,3.5,3.5,88,0.05,RA,,0.05,WeatherDisplay:10.37,2013-10-20 03:11:00,
2013-10-19 23:16:00,55.8,52.6,29.77,SSE,148,2.3,2.3,89,0.08,RA,,0.09,WeatherDisplay:10.37,2013-10-20 03:16:00,
2013-10-19 23:21:00,55.5,52.7,29.77,ENE,62,2.6,2.6,90,0.09,RA,,0.09,WeatherDisplay:10.37,2013-10-20 03:21:00,
2013-10-19 23:26:00,55.3,52.8,29.77,ENE,61,0.0,0.0,91,0.12,RA,,0.13,WeatherDisplay:10.37,2013-10-20 03:26:00,
2013-10-19 23:32:00,55.2,52.7,29.77,ENE,61,0.0,0.0,91,0.15,RA,,0.15,WeatherDisplay:10.37,2013-10-20 03:32:00,
2013-10-19 23:37:00,55.1,52.9,29.77,SSE,165,0.0,0.0,92,0.16,RA,,0.16,WeatherDisplay:10.37,2013-10-20 03:37:00,
2013-10-19 23:42:00,55.0,52.8,29.77,SSE,165,0.0,0.0,92,0.16,RA,,0.16,WeatherDisplay:10.37,2013-10-20 03:42:00,
2013-10-19 23:47:00,54.9,53.0,29.76,SSE,165,0.0,0.0,93,0.16,SCT,,0.16,WeatherDisplay:10.37,2013-10-20 03:47:00,
2013-10-19 23:52:00,54.9,53.0,29.76,SSE,165,0.0,0.0,93,0.16,SCT,,0.16,WeatherDisplay:10.37,2013-10-20 03:52:00,
2013-10-19 23:57:00,54.7,52.8,29.76,SSE,165,0.0,0.0,93,0.16,SCT,,0.16,WeatherDisplay:10.37,2013-10-20 03:57:00,